Fort Worth Alliance, TX

9:32 PM CDT on October 18, 2017 (GMT -0500)
Fort Worth Alliance

Weather History for KAFW - December, 2012

Change the Weather History Date:

Friday, December 21, 2012

  Actual Average Record
Temperature  
Mean Temperature 44 °F -  
Max Temperature 64 °F 52 °F 84 °F (2010)
Min Temperature 24 °F 30 °F 19 °F (2008)
Degree Days  
Heating Degree Days 21    
Moisture  
Dew Point 12 °F    
Average Humidity 31    
Maximum Humidity 60    
Minimum Humidity 10    
Precipitation  
Precipitation 0.00 in - - ()
Sea Level Pressure  
Sea Level Pressure 30.38 in    
Wind  
Wind Speed 4 mph (SW)    
Max Wind Speed 10 mph    
Max Gust Speed 16 mph    
Visibility 10 miles    
Events      
Averages and records for this station are not official NWS values.
T = Trace of Precipitation, MM = Missing Value Source: NWS Daily Summary

Daily Weather History Graph

Daily Weather History Graph

Search for Another Location

Airport or City:

Trip Planner

Search our weather history database for the weather conditions in past years. The results will help you decide how hot, cold, wet, or windy it might be!

Date:

Astronomy

Dec. 21, 2012 Rise Set
Actual Time 7:28 AM CST 5:26 PM CST
Civil Twilight 7:01 AM CST 5:54 PM CST
Nautical Twilight 6:30 AM CST 6:25 PM CST
Astronomical Twilight 5:59 AM CST 6:55 PM CST
Moon 1:03 PM CST (12/21) 1:29 AM CST (12/21)
Length of Visible Light 10h 53m
Length of Day
9h 58m
Waxing Gibbous, 65% of the Moon is Illuminated
Dec 21
Waxing Gibbous
Dec 28
Full
Jan 4
Last Quarter
Jan 11
New
Jan 18
First Quarter

Hourly Weather History & Observations

Time (CST) Temp. Windchill Dew Point Humidity Pressure Visibility Wind Dir Wind Speed Gust Speed Precip Events Conditions
12:53 AM 27.0 °F 23.0 °F 9.0 °F 47% 30.42 in 10.0 mi SW 3.5 mph - N/A   Clear
1:53 AM 24.1 °F - 10.9 °F 57% 30.42 in 10.0 mi Calm Calm - N/A   Clear
2:53 AM 24.1 °F 17.0 °F 12.0 °F 60% 30.43 in 10.0 mi WSW 5.8 mph - N/A   Clear
3:53 AM 26.1 °F 20.5 °F 10.0 °F 51% 30.42 in 10.0 mi WSW 4.6 mph - N/A   Clear
4:53 AM 27.0 °F - 14.0 °F 58% 30.42 in 10.0 mi Calm Calm - N/A   Clear
6:53 AM 30.9 °F 27.5 °F 12.0 °F 46% 30.45 in 10.0 mi WSW 3.5 mph - N/A   Clear
7:53 AM 30.9 °F - 12.9 °F 47% 30.46 in 10.0 mi Calm Calm - N/A   Clear
8:53 AM 39.0 °F - 21.9 °F 50% 30.47 in 10.0 mi Calm Calm - N/A   Clear
9:53 AM 48.9 °F - 12.0 °F 23% 30.47 in 10.0 mi WSW 5.8 mph - N/A   Clear
10:53 AM 55.0 °F - 12.0 °F 18% 30.46 in 10.0 mi West 4.6 mph - N/A   Clear
11:53 AM 59.0 °F - 10.9 °F 15% 30.42 in 10.0 mi WSW 6.9 mph - N/A   Clear
12:53 PM 62.1 °F - 8.1 °F 12% 30.38 in 10.0 mi SSW 9.2 mph - N/A   Clear
1:53 PM 64.0 °F - 6.1 °F 10% 30.35 in 10.0 mi SSW 9.2 mph - N/A   Clear
2:53 PM 64.0 °F - 6.1 °F 10% 30.33 in 10.0 mi SW 9.2 mph 16.1 mph N/A   Clear
3:53 PM 64.0 °F - 8.1 °F 11% 30.31 in 10.0 mi South 10.4 mph - N/A   Clear
4:53 PM 60.1 °F - 10.0 °F 14% 30.30 in 10.0 mi South 8.1 mph - N/A   Clear
5:53 PM 52.0 °F - 12.0 °F 20% 30.30 in 10.0 mi South 4.6 mph - N/A   Clear
6:53 PM 48.0 °F - 12.9 °F 24% 30.31 in 10.0 mi South 4.6 mph - N/A   Clear
7:53 PM 46.9 °F - 12.9 °F 25% 30.31 in 10.0 mi South 4.6 mph - N/A   Clear
8:53 PM 45.0 °F - 14.0 °F 29% 30.31 in 10.0 mi Calm Calm - N/A   Clear
9:53 PM 48.0 °F - 15.1 °F 27% 30.31 in 10.0 mi SSW 6.9 mph - N/A   Clear
10:53 PM 45.0 °F 41.8 °F 16.0 °F 31% 30.31 in 10.0 mi SSW 5.8 mph - N/A   Clear
11:53 PM 44.1 °F - 15.1 °F 31% 30.30 in 10.0 mi Calm Calm - N/A   Clear